Location: Oberkirch
(48.5323°N, 8.0787°E)
Time: 08:28:27
(UTC+00:00)

Vanguard 2 Rocket - All Passes

Search period start: 17 February 2026 00:00
Search period end: 27 February 2026 00:00
Orbit: 553 x 3286 km, 32.9° (Epoch: 16 February)

Date Brightness Start Highest point End Pass type
(mag) Time Alt. Az. Time Alt. Az. Time Alt. Az.
17 Feb - 10:19:42 10° SSW 10:32:51 23° SSE 10:43:35 10° ESE daylight
17 Feb - 12:31:53 10° SW 12:47:19 36° S 12:57:48 10° ESE daylight
17 Feb - 14:47:58 10° WSW 15:01:07 36° S 15:09:22 10° SE daylight
17 Feb - 17:05:46 10° WSW 17:13:10 20° SW 17:18:28 10° S daylight
18 Feb - 09:15:53 10° S 09:26:40 18° SE 09:36:16 10° ESE daylight
18 Feb - 11:25:18 10° SW 11:41:03 33° SSE 11:52:42 10° ESE daylight
18 Feb - 13:40:19 10° WSW 13:55:27 40° S 14:05:12 10° ESE daylight
18 Feb - 15:57:37 10° WSW 16:08:26 29° SSW 16:15:32 10° SSE daylight
19 Feb - 08:15:30 10° SSE 08:20:38 11° SE 08:25:36 10° ESE daylight
19 Feb - 10:19:30 10° SSW 10:34:40 29° SSE 10:46:57 10° ESE daylight
19 Feb - 12:32:58 10° SW 12:49:23 40° S 13:00:36 10° ESE daylight
19 Feb - 14:49:39 10° WSW 15:03:15 36° SSW 15:11:55 10° SE daylight
19 Feb - 17:08:21 10° WSW 17:15:06 17° SW 17:20:12 10° S daylight
20 Feb - 09:14:47 10° S 09:28:18 23° SE 09:40:18 10° ESE daylight
20 Feb - 11:26:05 10° SW 11:43:00 38° SSE 11:55:33 10° ESE daylight
20 Feb - 13:41:49 10° WSW 13:57:34 41° S 14:07:49 10° ESE daylight
20 Feb - 15:59:40 10° W 16:10:27 26° SSW 16:17:43 10° SSE daylight
21 Feb - 08:11:44 10° S 08:22:07 17° SE 08:32:04 10° ESE daylight
21 Feb - 10:19:55 10° SSW 10:36:26 34° SSE 10:49:56 10° E daylight
21 Feb - 12:34:16 10° WSW 12:51:25 43° S 13:03:15 10° ESE daylight
21 Feb - 14:51:26 10° WSW 15:05:17 35° SSW 15:14:18 10° SE daylight
21 Feb - 17:11:23 10° WSW 17:16:54 14° SW 17:21:21 10° SSW daylight
22 Feb - 07:14:47 10° SE 07:16:15 10° SE 07:17:43 10° SE daylight
22 Feb - 09:14:40 10° SSW 09:29:53 29° SSE 09:43:34 10° E daylight
22 Feb - 11:27:12 10° SW 11:44:53 42° S 11:58:13 10° ESE daylight
22 Feb - 13:43:26 10° WSW 13:59:34 41° SSW 14:10:17 10° SE daylight
22 Feb - 16:01:53 10° W 16:12:17 23° SW 16:19:37 10° SSE daylight
23 Feb - 08:10:37 10° S 08:23:32 22° SE 08:36:07 10° E daylight
23 Feb - 10:20:47 10° SW 10:38:10 39° SSE 10:52:38 10° ESE daylight
23 Feb - 12:35:46 10° WSW 12:53:22 45° S 13:05:45 10° ESE daylight
23 Feb - 14:53:19 10° W 15:07:10 32° SSW 15:16:29 10° SSE daylight
23 Feb - 17:15:42 10° WSW 17:18:32 11° SW 17:21:05 10° SW daylight
24 Feb - 07:08:37 10° SSE 07:17:32 15° SE 07:26:40 10° ESE daylight
24 Feb - 09:15:11 10° SSW 09:31:27 34° SSE 09:46:24 10° E daylight
24 Feb - 11:28:34 10° WSW 11:46:44 45° S 12:00:43 10° ESE daylight
24 Feb - 13:45:10 10° WSW 14:01:28 40° SSW 14:12:35 10° SE daylight
24 Feb - 16:04:21 10° W 16:13:58 20° SW 16:21:06 10° S daylight
25 Feb - 08:10:34 10° SSW 08:24:56 28° SE 08:39:20 10° E daylight
25 Feb - 10:21:59 10° SW 10:39:52 43° SSE 10:55:09 10° ESE daylight
25 Feb - 12:37:24 10° WSW 12:55:13 45° S 13:08:07 10° ESE daylight
25 Feb - 14:55:20 10° W 15:08:53 29° SSW 15:18:22 10° SSE daylight
26 Feb - 07:07:19 10° S 07:18:47 20° SE 07:30:57 10° E daylight
26 Feb - 09:16:09 10° SW 09:33:00 39° SSE 09:48:59 10° E daylight
26 Feb - 11:30:07 10° WSW 11:48:31 47° S 12:03:06 10° ESE daylight
26 Feb - 13:47:00 10° W 14:03:14 37° SSW 14:14:42 10° SE daylight
26 Feb - 16:07:18 10° WSW 16:15:28 16° SW 16:21:58 10° SSW daylight
